Regional Weather Roundup
Issued by NWS Midland/Odessa, TX

Skip options and go directly to product.
Home | Oldest Version | Next Version | Current Version | All | Text Only | Save Text | Print | Product List | Glossary On

Skip product version selection by date and time.   
477
ASUS44 KMAF 191101
RWRMAF
MIDLAND AREA WEATHER ROUNDUP
NATIONAL WEATHER SERVICE MIDLAND TX
500 AM CST FRI DEC 19 2014

...IN SOUTHWEST TEXAS AND SOUTHEAST NEW MEXICO...

CITY           SKY/WX    TMP DP  RH WIND       PRES   REMARKS
ALPINE         CLEAR     34  29  81 S7        30.18S WCI  28
ANDREWS        CLOUDY    38  37  99 E6        30.11S WCI  33
ARTESIA        CLEAR     36  34  93 NW8       30.11R WCI  29
BIG SPRING     CLOUDY    41  36  81 NE10      30.14F WCI  35
CARLSBAD       CLEAR     44  35  70 W12       30.08S WCI  38
DRYDEN           N/A     50  38  63 N9        30.05R
FORT STOCKTON  CLEAR     40  32  73 SW9       30.10S WCI  34
GUAD PASS      NOT AVBL
HOBBS          CLEAR     34  34 100 CALM      30.10F FOG
MARFA          CLEAR     30  25  80 N6        30.15R WCI  24
MIDLAND AIRPK  PTCLDY    40  37  89 E9        30.10F WCI  34
MIDLAND INTL   MOCLDY    39  36  89 E9        30.09F WCI  33
ODESSA         PTCLDY    38  36  92 SE5       30.10S WCI  34
PECOS          CLEAR     40  32  72 N5        30.10R WCI  37
PRESIDIO       FAIR      43  32  65 N3        30.10S
SEMINOLE       CLOUDY    37  35  96 E7        30.11S FOG     WCI  31
SNYDER         CLOUDY    39  36  87 E7        30.15S WCI  34
WINK           CLEAR     42  35  76 SE5       30.08S WCI  39
$$
...OTHER STATIONS IN TEXAS...

CITY           SKY/WX    TMP DP  RH WIND       PRES   REMARKS
ABILENE        CLOUDY    42  41  96 N9        30.15S FOG     WCI  37
AMARILLO       MIX PCPN  36  35  96 SE7       30.11F FOG     WCI  30
AUSTIN         LGT RAIN  49  49 100 N10       30.04F FOG
BROWNSVILLE    CLOUDY    67  65  93 S6        29.93F FOG
CORPUS CHRISTI CLOUDY    68  66  93 SE3       29.94F
DALLAS FTW     LGT RAIN  46  43  89 NE7       30.17F FOG
DEL RIO        CLOUDY    59  54  83 W6        30.01S
EL PASO        PTCLDY    44  36  73 W7        30.13S
HOUSTON INT    RAIN      57  56  96 E8        30.01F
LUBBOCK        CLOUDY    38  37  97 SE5       30.10F WCI  34
SAN ANGELO     CLOUDY    46  42  86 N12       30.11R
SAN ANTONIO    DRIZZLE   52  50  93 N10       30.03S FOG
WACO           RAIN      46  45  96 N16       30.12R FOG     WCI  39
WICHITA FALLS  NOT AVBL
$$
...OTHER LOCATIONS IN NEW MEXICO...

CITY           SKY/WX    TMP DP  RH WIND       PRES   REMARKS
ALAMAGORDO     PTCLDY    39  37  93 N10       30.13F WCI  32
ALBUQUERQUE    CLEAR     33  26  75 N8        30.17S WCI  26
CANNON AFB     CLOUDY    36  35  97 S6        30.08F FOG     WCI  31
CLOVIS         CLOUDY    36  34  93 SE5       30.09R WCI  32
HOLLOMAN AFB   PTCLDY    38  38  99 N8        30.12F WCI  33
ROSWELL        CLOUDY    42  35  76 N6        30.10R WCI  38
RUIDOSO        CLEAR     28  27  93 NW9       30.13S WCI  20
SANTA FE       CLEAR     27  23  85 NW7       30.11S WCI  19
TRUTH OR CONSE CLEAR     34  29  82 NW8       30.14F WCI  27
TUCUMCARI      MOCLDY    30  27  88 N9        30.08R WCI  22
$$

USA.gov is the U.S. government's official web portal to all federal, state and local government web resources and services.